Torna al catalogo

CZ-6A DEB

AttivoSSO
NORAD 54541·DEBRIS·🇨🇳 China

Lanciato Nov 11, 2022 da Taiyuan Satellite Launch Center

Loading…

Prossimi Passaggi (prossime 24 ore)

TLE

AggiornatoSource: Space-Track

Epoca: Sep 14, 2026, 12:44 UTC

1 54541U 22151KR  26257.53093308 -.00000009  00000-0  19873-4 0  9995
2 54541  98.8703 251.5683 0061640 114.8652 245.8942 14.07364194196931

Traccia CZ-6A DEB in tempo reale con AllMySat

Download on the App Store